Location: Acequia del Cap
(41.7000°N, 0.6167°E)
Time: 01:23:18
(UTC+00:00)

Meteor 1-16 Rocket - Pass Details

Date: 07 August 2020
Orbit: 791 x 906 km, 81.2° (Epoch: 22 September)

Event Time Altitude Azimuth Distance (km) Brightness Sun altitude
Exits shadow 03:38:16 - 189° (S) 2,419 6.2 -13.7°
Reaches altitude 10° 03:38:25 10° 189° (S) 2,361 6.1 -13.7°
Maximum altitude 03:43:45 88° 279° (W) 816 4.1 -12.9°
Drops below altitude 10° 03:49:15 10° 9° (N) 2,435 7.3 -12.1°
Sets 03:51:42 0° 10° (N) 3,390 8.1 -11.7°
